| time (UTC) | temp F | wind direction | speed MPH | gust MPH | rain 1hr in | rain 24hr in | rain mn in | humidity % | barometer mb |
| 20260507220017 | 62 | 315 | 4.0 | 7.0 | 0.00 | 0.09 | 0.09 | 72 | 1012.9 |
| 20260507215017 | 62 | 315 | 5.0 | 9.0 | 0.00 | 0.09 | 0.09 | 71 | 1012.9 |
| 20260507214017 | 62 | 270 | 5.0 | 7.0 | 0.00 | 0.09 | 0.09 | 70 | 1012.9 |
| 20260507213038 | 62 | 248 | 3.0 | 5.0 | 0.00 | 0.09 | 0.09 | 69 | 1013.0 |
| 20260507212017 | 61 | 0.0 | 0.0 | 0.00 | 0.09 | 0.09 | 72 | 1012.9 | |
| 20260507211017 | 61 | 0.0 | 0.0 | 0.00 | 0.09 | 0.09 | 71 | 1013.0 | |
| 20260507210019 | 62 | 0.0 | 0.0 | 0.00 | 0.09 | 0.09 | 70 | 1013.1 | |
| 20260507205017 | 63 | 225 | 3.0 | 4.0 | 0.00 | 0.09 | 0.09 | 68 | 1013.0 |
| 20260507204017 | 63 | 225 | 3.0 | 6.0 | 0.00 | 0.09 | 0.09 | 68 | 1012.9 |
| 20260507203017 | 63 | 225 | 3.0 | 5.0 | 0.00 | 0.09 | 0.09 | 67 | 1012.8 |
| 20260507202017 | 63 | 225 | 1.0 | 3.0 | 0.00 | 0.09 | 0.09 | 69 | 1012.8 |
| 20260507201017 | 62 | 225 | 2.0 | 3.0 | 0.00 | 0.09 | 0.09 | 71 | 1013.0 |
| 20260507200017 | 63 | 225 | 1.0 | 3.0 | 0.00 | 0.09 | 0.09 | 67 | 1012.9 |
| 20260507195017 | 64 | 225 | 4.0 | 4.0 | 0.00 | 0.09 | 0.09 | 64 | 1012.9 |
| 20260507194017 | 65 | 225 | 3.0 | 4.0 | 0.00 | 0.09 | 0.09 | 63 | 1012.8 |
| 20260507193017 | 65 | 225 | 2.0 | 3.0 | 0.00 | 0.09 | 0.09 | 63 | 1012.7 |
| 20260507192037 | 65 | 225 | 2.0 | 3.0 | 0.00 | 0.09 | 0.09 | 62 | 1012.6 |
| 20260507191017 | 65 | 225 | 4.0 | 6.0 | 0.00 | 0.09 | 0.09 | 61 | 1012.6 |
| 20260507190016 | 66 | 225 | 3.0 | 4.0 | 0.00 | 0.09 | 0.09 | 60 | 1012.5 |
| 20260507185017 | 66 | 225 | 3.0 | 5.0 | 0.00 | 0.09 | 0.09 | 60 | 1012.6 |
| 20260507184017 | 67 | 225 | 3.0 | 4.0 | 0.00 | 0.09 | 0.09 | 59 | 1012.7 |
| 20260507183016 | 68 | 225 | 2.0 | 4.0 | 0.00 | 0.09 | 0.09 | 58 | 1012.7 |
| 20260507182017 | 69 | 225 | 2.0 | 4.0 | 0.00 | 0.09 | 0.09 | 57 | 1012.7 |
| 20260507181017 | 70 | 0.0 | 0.0 | 0.00 | 0.09 | 0.09 | 53 | 1012.7 | |
| 20260507180017 | 70 | 225 | 1.0 | 3.0 | 0.00 | 0.09 | 0.09 | 52 | 1012.5 |
| 20260507175016 | 71 | 225 | 1.0 | 3.0 | 0.00 | 0.09 | 0.09 | 51 | 1012.4 |
| 20260507174016 | 72 | 225 | 1.0 | 6.0 | 0.00 | 0.09 | 0.09 | 50 | 1012.5 |
| 20260507173016 | 73 | 0.0 | 2.0 | 0.00 | 0.09 | 0.09 | 49 | 1012.3 | |
| 20260507172016 | 73 | 225 | 2.0 | 6.0 | 0.00 | 0.09 | 0.09 | 48 | 1012.3 |
| 20260507171016 | 73 | 225 | 1.0 | 5.0 | 0.00 | 0.09 | 0.09 | 48 | 1012.3 |
| 20260507170017 | 74 | 225 | 2.0 | 5.0 | 0.00 | 0.09 | 0.09 | 48 | 1012.3 |
| 20260507165017 | 74 | 225 | 2.0 | 5.0 | 0.00 | 0.09 | 0.09 | 50 | 1012.2 |
| 20260507164017 | 74 | 225 | 1.0 | 4.0 | 0.00 | 0.09 | 0.09 | 50 | 1012.3 |
| 20260507163017 | 74 | 248 | 3.0 | 7.0 | 0.00 | 0.09 | 0.09 | 50 | 1012.2 |
| 20260507162017 | 73 | 248 | 4.0 | 10.0 | 0.00 | 0.09 | 0.09 | 52 | 1012.2 |
| 20260507161037 | 74 | 203 | 2.0 | 6.0 | 0.00 | 0.09 | 0.09 | 50 | 1012.3 |
| 20260507160017 | 74 | 203 | 1.0 | 5.0 | 0.00 | 0.09 | 0.09 | 52 | 1012.4 |
| 20260507155017 | 74 | 180 | 1.0 | 4.0 | 0.00 | 0.09 | 0.09 | 52 | 1012.6 |
| 20260507154017 | 75 | 0.0 | 3.0 | 0.00 | 0.09 | 0.09 | 51 | 1012.6 | |
| 20260507153017 | 74 | 180 | 1.0 | 6.0 | 0.00 | 0.09 | 0.09 | 52 | 1012.6 |
| 20260507152037 | 75 | 203 | 1.0 | 5.0 | 0.00 | 0.09 | 0.09 | 51 | 1012.6 |
| 20260507151016 | 74 | 225 | 1.0 | 2.0 | 0.00 | 0.09 | 0.09 | 51 | 1012.6 |
| 20260507150017 | 74 | 225 | 2.0 | 5.0 | 0.00 | 0.09 | 0.09 | 51 | 1012.7 |
| 20260507145037 | 73 | 0.0 | 3.0 | 0.00 | 0.09 | 0.09 | 54 | 1012.7 | |
| 20260507144016 | 73 | 0.0 | 3.0 | 0.00 | 0.09 | 0.09 | 53 | 1012.9 | |
| 20260507143016 | 72 | 225 | 1.0 | 5.0 | 0.00 | 0.09 | 0.09 | 56 | 1012.9 |
| 20260507142016 | 73 | 225 | 1.0 | 4.0 | 0.00 | 0.09 | 0.09 | 55 | 1013.0 |
| 20260507141017 | 73 | 203 | 1.0 | 5.0 | 0.00 | 0.09 | 0.09 | 55 | 1013.1 |
| 20260507140016 | 73 | 203 | 1.0 | 7.0 | 0.00 | 0.09 | 0.09 | 55 | 1013.3 |
| 20260507135016 | 71 | 315 | 2.0 | 8.0 | 0.00 | 0.09 | 0.09 | 58 | 1013.4 |
| 20260507134017 | 72 | 225 | 1.0 | 6.0 | 0.00 | 0.09 | 0.09 | 57 | 1013.4 |
| 20260507133016 | 71 | 248 | 5.0 | 10.0 | 0.00 | 0.09 | 0.09 | 59 | 1013.5 |
| 20260507132036 | 70 | 248 | 4.0 | 9.0 | 0.00 | 0.09 | 0.09 | 60 | 1013.6 |
| 20260507131016 | 71 | 248 | 3.0 | 8.0 | 0.00 | 0.09 | 0.09 | 59 | 1013.7 |
| 20260507130016 | 71 | 248 | 1.0 | 5.0 | 0.00 | 0.09 | 0.09 | 61 | 1013.8 |
| 20260507125016 | 70 | 248 | 4.0 | 9.0 | 0.00 | 0.09 | 0.09 | 59 | 1013.8 |
| 20260507124036 | 72 | 225 | 2.0 | 8.0 | 0.00 | 0.09 | 0.09 | 59 | 1013.8 |
| 20260507123016 | 73 | 225 | 2.0 | 4.0 | 0.00 | 0.09 | 0.09 | 56 | 1013.8 |
| 20260507122016 | 73 | 225 | 1.0 | 5.0 | 0.00 | 0.09 | 0.09 | 55 | 1013.7 |
| 20260507121056 | 73 | 0.0 | 4.0 | 0.00 | 0.09 | 0.09 | 55 | 1013.9 | |
| 20260507120016 | 73 | 248 | 3.0 | 7.0 | 0.00 | 0.09 | 0.09 | 55 | 1014.0 |
| 20260507115016 | 73 | 0.0 | 4.0 | 0.00 | 0.09 | 0.09 | 57 | 1014.0 | |
| 20260507114036 | 72 | 158 | 1.0 | 6.0 | 0.00 | 0.09 | 0.09 | 59 | 1014.0 |
| 20260507113016 | 71 | 180 | 1.0 | 3.0 | 0.00 | 0.09 | 0.09 | 61 | 1014.1 |
| 20260507112056 | 72 | 180 | 1.0 | 3.0 | 0.00 | 0.09 | 0.09 | 58 | 1014.1 |
| 20260507111056 | 72 | 135 | 1.0 | 4.0 | 0.00 | 0.09 | 0.09 | 59 | 1014.2 |
| 20260507110016 | 71 | 135 | 1.0 | 6.0 | 0.00 | 0.09 | 0.09 | 62 | 1014.2 |
| 20260507105016 | 71 | 180 | 1.0 | 4.0 | 0.00 | 0.09 | 0.09 | 58 | 1014.2 |
| 20260507104036 | 72 | 0.0 | 4.0 | 0.00 | 0.09 | 0.09 | 61 | 1014.5 | |
| 20260507103016 | 71 | 113 | 1.0 | 6.0 | 0.00 | 0.09 | 0.09 | 62 | 1014.5 |
| 20260507102016 | 69 | 135 | 1.0 | 4.0 | 0.00 | 0.09 | 0.09 | 64 | 1014.6 |
| 20260507101015 | 70 | 0.0 | 2.0 | 0.00 | 0.09 | 0.09 | 65 | 1014.6 | |
| 20260507100015 | 69 | 203 | 1.0 | 6.0 | 0.00 | 0.10 | 0.09 | 67 | 1014.6 |
| 20260507095018 | 67 | 0.0 | 0.0 | 0.00 | 0.10 | 0.09 | 69 | 1014.5 | |
| 20260507094017 | 66 | 248 | 2.0 | 6.0 | 0.00 | 0.10 | 0.09 | 72 | 1014.5 |
| 20260507093037 | 67 | 270 | 1.0 | 4.0 | 0.00 | 0.10 | 0.09 | 72 | 1014.6 |
| 20260507092018 | 67 | 0.0 | 2.0 | 0.00 | 0.10 | 0.09 | 72 | 1014.7 | |
| 20260507091037 | 65 | 270 | 2.0 | 6.0 | 0.00 | 0.10 | 0.09 | 78 | 1014.7 |
| 20260507090017 | 65 | 270 | 2.0 | 6.0 | 0.00 | 0.10 | 0.09 | 77 | 1014.7 |
| 20260507085018 | 66 | 203 | 2.0 | 5.0 | 0.01 | 0.10 | 0.09 | 75 | 1014.8 |
| 20260507084037 | 66 | 203 | 1.0 | 6.0 | 0.01 | 0.10 | 0.09 | 74 | 1014.7 |
| 20260507083037 | 66 | 0.0 | 5.0 | 0.01 | 0.10 | 0.09 | 76 | 1014.6 | |
| 20260507082017 | 65 | 0.0 | 3.0 | 0.01 | 0.10 | 0.09 | 79 | 1014.7 | |
| 20260507081017 | 64 | 158 | 2.0 | 6.0 | 0.01 | 0.10 | 0.09 | 79 | 1014.8 |
| 20260507080017 | 64 | 0.0 | 3.0 | 0.01 | 0.10 | 0.09 | 83 | 1014.7 | |
| 20260507075017 | 63 | 135 | 2.0 | 6.0 | 0.00 | 0.09 | 0.08 | 82 | 1014.6 |
| 20260507074157 | 63 | 135 | 3.0 | 6.0 | 0.00 | 0.09 | 0.08 | 83 | 1014.5 |
| 20260507073017 | 62 | 135 | 1.0 | 5.0 | 0.00 | 0.09 | 0.08 | 86 | 1014.5 |
| 20260507072017 | 61 | 113 | 1.0 | 4.0 | 0.00 | 0.09 | 0.08 | 86 | 1014.4 |
| 20260507071017 | 60 | 113 | 2.0 | 5.0 | 0.00 | 0.09 | 0.08 | 88 | 1014.6 |
| 20260507070017 | 60 | 113 | 1.0 | 3.0 | 0.00 | 0.09 | 0.08 | 87 | 1014.5 |
| 20260507065037 | 60 | 113 | 1.0 | 4.0 | 0.00 | 0.09 | 0.08 | 88 | 1014.5 |
| 20260507064037 | 59 | 0.0 | 1.0 | 0.00 | 0.09 | 0.08 | 88 | 1014.5 | |
| 20260507063017 | 59 | 0.0 | 1.0 | 0.00 | 0.09 | 0.08 | 89 | 1014.4 | |
| 20260507062017 | 58 | 0.0 | 1.0 | 0.00 | 0.09 | 0.08 | 90 | 1014.4 | |
| 20260507061017 | 58 | 0.0 | 2.0 | 0.00 | 0.09 | 0.08 | 90 | 1014.4 | |
| 20260507060017 | 58 | 113 | 1.0 | 3.0 | 0.00 | 0.09 | 0.08 | 90 | 1014.4 |
| 20260507055017 | 57 | 113 | 1.0 | 3.0 | 0.00 | 0.09 | 0.08 | 91 | 1014.3 |
| 20260507054016 | 57 | 113 | 1.0 | 3.0 | 0.00 | 0.09 | 0.08 | 92 | 1014.2 |
| 20260507053037 | 57 | 113 | 2.0 | 4.0 | 0.00 | 0.10 | 0.08 | 92 | 1014.2 |
| 20260507052017 | 56 | 113 | 1.0 | 3.0 | 0.00 | 0.10 | 0.08 | 93 | 1014.2 |
| 20260507051017 | 56 | 90 | 1.0 | 3.0 | 0.00 | 0.10 | 0.08 | 92 | 1014.2 |
| 20260507050016 | 56 | 90 | 2.0 | 4.0 | 0.00 | 0.11 | 0.08 | 92 | 1014.1 |
| 20260507045017 | 56 | 90 | 1.0 | 3.0 | 0.00 | 0.11 | 0.08 | 92 | 1014.0 |
| 20260507044016 | 56 | 113 | 1.0 | 2.0 | 0.00 | 0.11 | 0.08 | 92 | 1014.0 |
| 20260507043016 | 56 | 113 | 1.0 | 2.0 | 0.00 | 0.11 | 0.08 | 92 | 1013.8 |
| 20260507042016 | 56 | 0.0 | 2.0 | 0.00 | 0.11 | 0.08 | 92 | 1013.7 | |
| 20260507041036 | 56 | 113 | 1.0 | 3.0 | 0.00 | 0.11 | 0.08 | 92 | 1013.6 |
| 20260507040016 | 56 | 113 | 1.0 | 3.0 | 0.00 | 0.11 | 0.08 | 93 | 1013.6 |
| 20260507035016 | 56 | 113 | 1.0 | 3.0 | 0.00 | 0.11 | 0.08 | 93 | 1013.5 |
| 20260507034036 | 56 | 0.0 | 3.0 | 0.00 | 0.11 | 0.08 | 93 | 1013.4 | |
| 20260507033036 | 56 | 113 | 1.0 | 4.0 | 0.00 | 0.11 | 0.08 | 92 | 1013.3 |
| 20260507032016 | 57 | 0.0 | 2.0 | 0.00 | 0.11 | 0.08 | 93 | 1013.4 | |
| 20260507031016 | 57 | 0.0 | 2.0 | 0.00 | 0.11 | 0.08 | 93 | 1013.4 | |
| 20260507030036 | 57 | 113 | 1.0 | 3.0 | 0.00 | 0.11 | 0.08 | 92 | 1013.4 |
| 20260507025016 | 57 | 0.0 | 2.0 | 0.00 | 0.11 | 0.08 | 92 | 1013.4 | |
| 20260507024016 | 57 | 113 | 1.0 | 3.0 | 0.00 | 0.11 | 0.08 | 92 | 1013.4 |
| 20260507023022 | 57 | 113 | 2.0 | 4.0 | 0.01 | 0.11 | 0.08 | 92 | 1013.5 |
| 20260507022016 | 57 | 113 | 2.0 | 4.0 | 0.01 | 0.11 | 0.08 | 92 | 1013.5 |
| 20260507021016 | 57 | 113 | 2.0 | 4.0 | 0.01 | 0.11 | 0.08 | 92 | 1013.5 |
| 20260507020016 | 57 | 113 | 1.0 | 3.0 | 0.02 | 0.11 | 0.08 | 92 | 1013.5 |
| 20260507015036 | 57 | 113 | 1.0 | 3.0 | 0.03 | 0.11 | 0.08 | 92 | 1013.4 |
| 20260507014056 | 57 | 113 | 1.0 | 2.0 | 0.03 | 0.11 | 0.08 | 92 | 1013.4 |
| 20260507013016 | 57 | 113 | 2.0 | 5.0 | 0.03 | 0.10 | 0.07 | 92 | 1013.4 |
| 20260507012016 | 57 | 113 | 1.0 | 3.0 | 0.04 | 0.10 | 0.07 | 91 | 1013.4 |
| 20260507011016 | 57 | 113 | 1.0 | 3.0 | 0.04 | 0.10 | 0.07 | 91 | 1013.4 |
| 20260507010018 | 57 | 113 | 1.0 | 3.0 | 0.04 | 0.09 | 0.06 | 91 | 1013.4 |
| 20260507005018 | 58 | 113 | 2.0 | 4.0 | 0.03 | 0.08 | 0.05 | 91 | 1013.3 |
| 20260507004017 | 58 | 135 | 2.0 | 5.0 | 0.03 | 0.08 | 0.05 | 91 | 1013.4 |
| 20260507003017 | 58 | 0.0 | 1.0 | 0.02 | 0.07 | 0.04 | 91 | 1013.5 | |
| 20260507002018 | 58 | 0.0 | 1.0 | 0.02 | 0.06 | 0.03 | 90 | 1013.5 | |
| 20260507001017 | 58 | 0.0 | 1.0 | 0.02 | 0.06 | 0.03 | 90 | 1013.5 | |
| 20260507000037 | 58 | 135 | 1.0 | 4.0 | 0.01 | 0.05 | 0.02 | 90 | 1013.4 |
| 20260506235017 | 59 | 135 | 1.0 | 3.0 | 0.02 | 0.05 | 0.02 | 90 | 1013.4 |
| 20260506234017 | 59 | 135 | 1.0 | 4.0 | 0.02 | 0.05 | 0.02 | 90 | 1013.4 |
| 20260506233017 | 59 | 135 | 2.0 | 5.0 | 0.02 | 0.05 | 0.02 | 90 | 1013.5 |
| 20260506232017 | 60 | 0.0 | 1.0 | 0.01 | 0.04 | 0.01 | 90 | 1013.5 | |
| 20260506231017 | 60 | 0.0 | 1.0 | 0.01 | 0.04 | 0.01 | 89 | 1013.6 | |
| 20260506230017 | 60 | 0.0 | 3.0 | 0.01 | 0.04 | 0.01 | 89 | 1013.7 | |
| 20260506225017 | 60 | 0.0 | 2.0 | 0.00 | 0.03 | 0.00 | 88 | 1013.8 | |
| 20260506224017 | 60 | 135 | 1.0 | 4.0 | 0.00 | 0.03 | 0.00 | 87 | 1013.9 |
| 20260506223017 | 60 | 0.0 | 2.0 | 0.00 | 0.03 | 0.00 | 87 | 1013.8 | |
| 20260506222017 | 61 | 0.0 | 2.0 | 0.00 | 0.03 | 0.00 | 87 | 1013.7 | |
| 20260506221017 | 61 | 135 | 1.0 | 7.0 | 0.00 | 0.03 | 0.00 | 87 | 1013.7 |